Flag for Venezuela Weather past 2 weeks in Valencia, Venezuela

Now
82 °F

Passing clouds.


Feels Like: 88 °F
Forecast: N/A
Wind: 5 mph from Southwest

Location: Valencia Airport

Current Time: Apr 25, 2015 at 7:21:21 PM

Latest Report: Apr 25, 2015 at 6:30 PM


Visibility: N/A

Pressure: 29.92 "Hg

Humidity: 74%

Dew point: 73 °F

Location of ValenciaLocation

Historic Weather in Valencia — Graph

°F

Valencia temperature yesterday

Maximum temperature yesterday: 93 °F (at 3:30 PM)
Minimum temperature yesterday: 77 °F (at 4:30 AM)
Average temperature yesterday: 87 °F

Past Weeks' High & Low Weather Summary

 TemperatureHumidityPressure
High97 °F (Apr 14, 2:30 PM)94% (Apr 13, 4:30 AM)30.07 "Hg (Apr 13, 4:30 AM)
Low75 °F (Apr 13, 4:30 AM)30% (Apr 22, 2:30 PM)29.83 "Hg (Apr 19, 4:30 PM)
Average85 °F58%29.95 "Hg
* Reported Apr 10 6:30 PM — Apr 25 6:30 PM, Valencia, Weather by CustomWeather, © 2015

Note: Actual official high and low records may vary slightly from our data, if they occured in-between our weather recording intervals... More about our weather records

Advertising

Valencia weather history for previous 24 hours

 ConditionsComfort  
Time TempWeatherWind HumidityBarometerVisibility
6:30 PM
Sat, Apr 25
82 °FPassing clouds.5 mph74%29.92 "HgN/A
5:30 PM84 °FScattered clouds.5 mph70%29.89 "HgN/A
4:30 PM86 °FPartly sunny.6 mph70%29.89 "HgN/A
3:30 PM90 °FPartly sunny.No wind59%29.92 "HgN/A
2:30 PM86 °FPartly sunny.5 mph66%29.95 "HgN/A
1:30 PM84 °FOvercast.No wind70%29.98 "HgN/A
12:30 PM82 °FOvercast.5 mph74%30.01 "HgN/A
11:30 AM81 °FOvercast.6 mph79%30.04 "HgN/A
10:30 AM79 °FOvercast.7 mph84%30.04 "HgN/A
9:30 AM79 °FOvercast.7 mph89%30.04 "HgN/A
8:30 AM81 °FDrizzle. Overcast.2 mph79%30.01 "HgN/A
7:30 AM81 °FOvercast.No wind84%30.01 "HgN/A
6:30 AM79 °FPassing clouds.5 mph84%29.98 "Hg6 mi
5:30 AM79 °FDrizzle. Overcast.2 mph84%29.98 "Hg6 mi
1:30 AM82 °FPassing clouds.2 mph74%29.95 "HgN/A
10:30 PM
Fri, Apr 24
84 °FPassing clouds.5 mph66%29.95 "HgN/A
9:30 PM86 °FPassing clouds.8 mph59%29.95 "HgN/A
8:30 PM86 °FPassing clouds.2 mph59%29.92 "HgN/A
7:30 PM90 °FPassing clouds.3 mph55%29.92 "HgN/A
Weather by CustomWeather, © 2015

See weather overviewHow to use our weather pages